FW3887 Weather Reports


Display with metric or nautical units.
time (UTC)temp
F
wind
direction
speed
MPH
gust
MPH
rain 1hr
in
rain 24hr
in
rain mn
in
humidity
%
barometer
mb
20260906211737 88 118 3.0 9.0 0.00 0.00 0.00 40 1016.1
20260906211237 89 88 3.0 11.0 0.00 0.00 0.00 40 1016.2
20260906210737 89 141 4.0 11.0 0.00 0.00 0.00 39 1016.3
20260906210237 88 124 3.0 8.0 0.00 0.00 0.00 39 1016.4
20260906205737 88 74 2.0 9.0 0.00 0.00 0.00 41 1016.5
20260906205237 88 141 4.0 9.0 0.00 0.00 0.00 40 1016.5
20260906204737 88 134 3.0 9.0 0.00 0.00 0.00 40 1016.6
20260906204237 88 126 3.0 10.0 0.00 0.00 0.00 39 1016.6
20260906203737 87 156 2.0 10.0 0.00 0.00 0.00 41 1016.8
20260906203237 87 135 3.0 10.0 0.00 0.00 0.00 39 1016.8
20260906202737 87 69 4.0 10.0 0.00 0.00 0.00 41 1016.8
20260906202237 87 117 3.0 10.0 0.00 0.00 0.00 42 1016.8
20260906201737 86 158 3.0 9.0 0.00 0.00 0.00 41 1016.8
20260906201237 86 102 3.0 7.0 0.00 0.00 0.00 45 1016.8
20260906200737 86 87 1.0 10.0 0.00 0.00 0.00 46 1016.9
20260906200258 85 119 3.0 10.0 0.00 0.00 0.00 44 1017.1
20260906195737 85 83 2.0 7.0 0.00 0.00 0.00 45 1017.1
20260906195237 85 110 3.0 7.0 0.00 0.00 0.00 46 1017.1
20260906194737 85 106 2.0 7.0 0.00 0.00 0.00 44 1017.2
20260906194237 84 96 2.0 7.0 0.00 0.00 0.00 46 1017.3
20260906193737 84 83 2.0 7.0 0.00 0.00 0.00 47 1017.4
20260906193237 84 87 3.0 7.0 0.00 0.00 0.00 46 1017.4
20260906192737 84 63 2.0 7.0 0.00 0.00 0.00 48 1017.4
20260906192237 84 124 3.0 7.0 0.00 0.00 0.00 47 1017.6
20260906191737 84 105 2.0 6.0 0.00 0.00 0.00 46 1017.7
20260906191237 84 88 3.0 7.0 0.00 0.00 0.00 47 1017.7
20260906190737 84 172 1.0 6.0 0.00 0.00 0.00 45 1017.7
20260906190237 84 150 2.0 5.0 0.00 0.00 0.00 47 1017.9
20260906185737 84 6 2.0 7.0 0.00 0.00 0.00 47 1018.0
20260906185237 84 81 3.0 7.0 0.00 0.00 0.00 47 1018.1
20260906184737 83 310 1.0 4.0 0.00 0.00 0.00 48 1018.2
20260906184237 83 345 1.0 4.0 0.00 0.00 0.00 50 1018.4
20260906183737 82 85 1.0 6.0 0.00 0.00 0.00 49 1018.4
20260906183237 82 64 2.0 6.0 0.00 0.00 0.00 49 1018.6
20260906182737 82 103 2.0 6.0 0.00 0.00 0.00 50 1018.8
20260906182237 82 118 2.0 6.0 0.00 0.00 0.00 50 1018.8
20260906181737 82 59 3.0 6.0 0.00 0.00 0.00 51 1019.0
20260906181237 82 41 3.0 7.0 0.00 0.00 0.00 50 1019.1
20260906180737 82 4 2.0 7.0 0.00 0.00 0.00 50 1019.2
20260906180237 82 13 1.0 6.0 0.00 0.00 0.00 52 1019.3
20260906175737 81 323 2.0 6.0 0.00 0.00 0.00 51 1019.2
20260906175237 81 37 1.0 5.0 0.00 0.00 0.00 50 1019.4
20260906174737 81 4 2.0 6.0 0.00 0.00 0.00 52 1019.5
20260906174237 80 17 3.0 6.0 0.00 0.00 0.00 52 1019.5
20260906173737 80 10 2.0 6.0 0.00 0.00 0.00 53 1019.5
20260906173237 80 325 3.0 8.0 0.00 0.00 0.00 54 1019.4
20260906172737 80 315 3.0 8.0 0.00 0.00 0.00 56 1019.4
20260906172237 79 313 2.0 6.0 0.00 0.00 0.00 56 1019.4
20260906171737 79 252 1.0 7.0 0.00 0.00 0.00 55 1019.5
20260906171237 79 315 3.0 7.0 0.00 0.00 0.00 57 1019.6
20260906170737 78 330 2.0 6.0 0.00 0.00 0.00 57 1019.6
20260906170237 78 6 2.0 8.0 0.00 0.00 0.00 58 1019.7
20260906165737 78 327 4.0 8.0 0.00 0.00 0.00 58 1019.7
20260906165237 77 341 3.0 7.0 0.00 0.00 0.00 59 1019.7
20260906164737 77 308 3.0 5.0 0.00 0.00 0.00 59 1019.7
20260906164237 76 300 2.0 6.0 0.00 0.00 0.00 61 1019.8
20260906163737 76 317 2.0 6.0 0.00 0.00 0.00 62 1019.9
20260906163237 76 298 2.0 6.0 0.00 0.00 0.00 62 1019.9
20260906162737 76 287 2.0 5.0 0.00 0.00 0.00 63 1019.9
20260906162237 75 298 2.0 5.0 0.00 0.00 0.00 63 1020.0
20260906161737 75 266 1.0 5.0 0.00 0.00 0.00 65 1020.0
20260906161237 74 287 2.0 8.0 0.00 0.00 0.00 66 1020.0
20260906160737 74 306 3.0 8.0 0.00 0.00 0.00 66 1020.1
20260906160237 73 299 2.0 7.0 0.00 0.00 0.00 67 1020.1
20260906155737 73 338 3.0 7.0 0.00 0.00 0.00 68 1020.0
20260906155237 72 308 3.0 8.0 0.00 0.00 0.00 68 1020.0
20260906154737 72 331 2.0 8.0 0.00 0.00 0.00 70 1019.9
20260906154237 71 288 3.0 6.0 0.00 0.00 0.00 71 1019.9
20260906153737 71 263 2.0 6.0 0.00 0.00 0.00 71 1019.9
20260906153237 71 245 2.0 7.0 0.00 0.00 0.00 72 1019.9
20260906152737 70 296 3.0 7.0 0.00 0.00 0.00 72 1019.9
20260906152237 70 310 2.0 6.0 0.00 0.00 0.00 74 1020.1
20260906151737 69 294 3.0 6.0 0.00 0.00 0.00 73 1020.1
20260906151237 69 316 4.0 6.0 0.00 0.00 0.00 75 1020.1
20260906150758 69 292 1.0 7.0 0.00 0.00 0.00 75 1020.1
20260906150237 68 309 3.0 7.0 0.00 0.00 0.00 76 1020.2
20260906145737 68 293 1.0 7.0 0.00 0.00 0.00 76 1020.2
20260906145237 68 282 3.0 7.0 0.00 0.00 0.00 77 1020.1
20260906144758 68 331 4.0 7.0 0.00 0.00 0.00 77 1020.2
20260906144237 68 305 2.0 7.0 0.00 0.00 0.00 77 1020.3
20260906143737 67 314 3.0 7.0 0.00 0.00 0.00 78 1020.2
20260906143237 67 326 3.0 6.0 0.00 0.00 0.00 79 1020.2
20260906142737 66 342 3.0 7.0 0.00 0.00 0.00 80 1020.3
20260906142237 66 326 3.0 7.0 0.00 0.00 0.00 81 1020.1
20260906141737 66 297 3.0 7.0 0.00 0.00 0.00 81 1020.0
20260906141237 65 328 3.0 10.0 0.00 0.00 0.00 82 1020.0
20260906140737 65 297 3.0 10.0 0.00 0.00 0.00 84 1019.9
20260906140237 64 268 3.0 7.0 0.00 0.00 0.00 84 1019.7
20260906135737 64 310 3.0 7.0 0.00 0.00 0.00 84 1019.7
20260906135237 63 296 2.0 7.0 0.00 0.00 0.00 85 1019.7
20260906134737 63 285 2.0 7.0 0.00 0.00 0.00 86 1019.7
20260906134237 62 287 1.0 5.0 0.00 0.00 0.00 87 1019.7
20260906133737 62 300 2.0 5.0 0.00 0.00 0.00 87 1019.6
20260906133237 62 280 2.0 5.0 0.00 0.00 0.00 88 1019.7
20260906132737 61 299 0.0 6.0 0.00 0.00 0.00 88 1019.6
20260906132237 61 221 2.0 6.0 0.00 0.00 0.00 88 1019.3
20260906131737 60 275 2.0 6.0 0.00 0.00 0.00 88 1019.2
20260906131237 60 246 2.0 6.0 0.00 0.00 0.00 88 1019.2
20260906130737 60 223 1.0 5.0 0.00 0.00 0.00 88 1019.3
20260906130237 59 300 1.0 3.0 0.00 0.00 0.00 88 1019.4
20260906125737 59 255 0.0 5.0 0.00 0.00 0.00 88 1019.3
20260906125237 59 273 2.0 5.0 0.00 0.00 0.00 88 1019.2
20260906124737 59 321 0.0 5.0 0.00 0.00 0.00 87 1019.2
20260906124237 59 242 0.0 3.0 0.00 0.00 0.00 87 1019.1
20260906123737 59 267 0.0 3.0 0.00 0.00 0.00 86 1018.9
20260906123237 59 324 1.0 4.0 0.00 0.00 0.00 86 1019.0
20260906122737 59 337 0.0 4.0 0.00 0.00 0.00 86 1019.1
20260906122237 59 315 1.0 3.0 0.00 0.00 0.00 85 1019.2
20260906121737 59 317 0.0 3.0 0.00 0.00 0.00 85 1019.1
20260906121237 59 317 0.0 3.0 0.00 0.00 0.00 84 1019.0
20260906120737 59 317 0.0 2.0 0.00 0.00 0.00 83 1019.0
20260906120237 59 13 0.0 0.0 0.00 0.00 0.00 81 1018.9
20260906115737 59 12 0.0 2.0 0.00 0.00 0.00 81 1019.0
20260906115237 59 12 0.0 2.0 0.00 0.00 0.00 81 1019.0
20260906114737 59 11 0.0 1.0 0.00 0.00 0.00 80 1019.0
20260906114237 60 21 0.0 1.0 0.00 0.00 0.00 80 1019.0
20260906113737 60 21 0.0 3.0 0.00 0.00 0.00 80 1018.8
20260906113237 60 12 0.0 3.0 0.00 0.00 0.00 79 1018.8
20260906112737 60 35 2.0 3.0 0.00 0.00 0.00 77 1018.8
20260906112237 61 244 0.0 2.0 0.00 0.00 0.00 78 1018.7
20260906111758 61 244 0.0 3.0 0.00 0.00 0.00 78 1018.6
20260906111237 61 243 1.0 4.0 0.00 0.00 0.00 76 1018.8
20260906110737 61 238 1.0 4.0 0.00 0.00 0.00 75 1018.8
20260906110237 62 228 1.0 4.0 0.00 0.00 0.00 73 1018.8
20260906105737 62 272 1.0 4.0 0.00 0.00 0.00 72 1018.8
20260906105258 63 252 0.0 3.0 0.00 0.00 0.00 71 1018.7
20260906104737 63 253 0.0 4.0 0.00 0.00 0.00 70 1018.6
20260906104237 63 246 1.0 4.0 0.00 0.00 0.00 70 1018.6
20260906103737 63 252 1.0 3.0 0.00 0.00 0.00 70 1018.6
20260906103237 63 250 1.0 2.0 0.00 0.00 0.00 70 1018.7
20260906102737 64 247 0.0 2.0 0.00 0.00 0.00 71 1018.8
20260906102258 64 247 0.0 2.0 0.00 0.00 0.00 71 1018.9
20260906101737 64 247 0.0 2.0 0.00 0.00 0.00 71 1018.8
20260906101237 64 256 0.0 3.0 0.00 0.00 0.00 71 1019.0
20260906100737 64 262 0.0 5.0 0.00 0.00 0.00 71 1018.9
20260906100237 64 254 1.0 5.0 0.00 0.00 0.00 71 1018.8
20260906095737 64 251 1.0 2.0 0.00 0.00 0.00 71 1018.8
20260906095237 65 251 0.0 2.0 0.00 0.00 0.00 72 1018.8
20260906094737 65 249 0.0 4.0 0.00 0.00 0.00 72 1018.6
20260906094237 65 228 2.0 4.0 0.00 0.00 0.00 72 1018.5
20260906093737 65 250 1.0 3.0 0.00 0.00 0.00 72 1018.4
20260906093237 65 247 1.0 3.0 0.00 0.00 0.00 72 1018.6
20260906092737 65 244 0.0 3.0 0.00 0.00 0.00 73 1018.5
20260906092237 65 256 0.0 3.0 0.00 0.00 0.00 73 1018.6
20260906091737 65 257 0.0 2.0 0.00 0.00 0.00 73 1018.5
20260906091238 65 250 0.0 3.0 0.00 0.00 0.00 73 1018.4
20260906090758 65 257 1.0 3.0 0.00 0.00 0.00 73 1018.4
20260906090237 65 258 0.0 3.0 0.00 0.00 0.00 72 1018.4
20260906085737 65 257 0.0 3.0 0.00 0.00 0.00 72 1018.5
20260906085237 65 261 0.0 2.0 0.00 0.00 0.00 72 1018.6
20260906084737 65 260 0.0 2.0 0.00 0.00 0.00 72 1018.5
20260906084237 65 261 0.0 3.0 0.00 0.00 0.00 72 1018.6
20260906083737 65 309 0.0 2.0 0.00 0.00 0.00 70 1018.5
20260906083237 65 318 0.0 2.0 0.00 0.00 0.00 69 1018.6
20260906082737 65 328 0.0 2.0 0.00 0.00 0.00 68 1018.6
20260906082237 66 327 0.0 4.0 0.00 0.00 0.00 67 1018.7
20260906081737 66 327 1.0 4.0 0.00 0.00 0.00 66 1018.7
20260906081237 66 313 0.0 3.0 0.00 0.00 0.00 65 1018.7
20260906080737 66 313 1.0 3.0 0.00 0.00 0.00 64 1018.6
20260906080258 67 334 0.0 1.0 0.00 0.00 0.00 63 1018.6
20260906075737 67 335 0.0 1.0 0.00 0.00 0.00 62 1018.7
20260906075237 67 335 0.0 1.0 0.00 0.00 0.00 61 1018.8
20260906074737 68 334 0.0 1.0 0.00 0.00 0.00 60 1018.9
20260906074237 68 334 0.0 0.0 0.00 0.00 0.00 59 1018.8
20260906073737 68 335 0.0 2.0 0.00 0.00 0.00 59 1018.9
20260906073237 69 336 0.0 3.0 0.00 0.00 0.00 59 1018.9
20260906072737 69 342 1.0 4.0 0.00 0.00 0.00 59 1018.8
20260906072237 69 7 1.0 3.0 0.00 0.00 0.00 58 1018.8
20260906071737 69 89 0.0 3.0 0.00 0.00 0.00 56 1018.6
20260906071237 69 76 0.0 3.0 0.00 0.00 0.00 55 1018.8
20260906070737 69 78 1.0 5.0 0.00 0.00 0.00 55 1018.6
20260906070237 69 85 2.0 6.0 0.00 0.00 0.00 56 1018.4
20260906065737 69 63 1.0 5.0 0.00 0.00 0.00 54 1018.4
20260906065237 70 92 1.0 3.0 0.00 0.00 0.00 53 1018.3
20260906064737 70 23 0.0 2.0 0.00 0.00 0.00 52 1018.4
20260906064258 70 324 0.0 4.0 0.00 0.00 0.00 51 1018.3
20260906063737 71 351 2.0 6.0 0.00 0.00 0.00 51 1018.2
20260906063237 71 333 3.0 6.0 0.00 0.00 0.00 50 1018.1
20260906062737 71 311 2.0 6.0 0.00 0.00 0.00 50 1018.0
20260906062237 71 304 1.0 7.0 0.00 0.00 0.00 50 1018.1
20260906061737 71 230 1.0 4.0 0.00 0.00 0.00 51 1018.1
20260906061237 71 233 1.0 4.0 0.00 0.00 0.00 51 1018.1
20260906060758 70 251 1.0 4.0 0.00 0.00 0.00 53 1018.0
20260906060237 70 257 1.0 5.0 0.00 0.00 0.00 53 1018.0
20260906055737 70 268 1.0 6.0 0.00 0.00 0.00 51 1018.1
20260906055237 70 259 2.0 6.0 0.00 0.00 0.00 51 1018.0
20260906054737 70 215 1.0 5.0 0.00 0.00 0.00 50 1018.0
20260906054237 70 241 2.0 5.0 0.00 0.00 0.00 50 1018.0
20260906053737 70 245 1.0 3.0 0.00 0.00 0.00 50 1018.0
20260906053237 70 302 1.0 2.0 0.00 0.00 0.00 49 1017.9
20260906052737 70 249 0.0 2.0 0.00 0.00 0.00 48 1017.9
20260906052258 70 253 0.0 4.0 0.00 0.00 0.00 48 1017.8
20260906051758 70 262 1.0 4.0 0.00 0.00 0.00 47 1017.9
20260906051237 71 258 1.0 3.0 0.00 0.00 0.00 46 1018.0
20260906050737 71 223 1.0 3.0 0.00 0.00 0.00 45 1018.0
20260906050237 71 228 1.0 3.0 0.00 0.00 0.00 45 1018.1
20260906045737 71 207 1.0 3.0 0.00 0.00 0.00 44 1018.0
20260906045238 72 226 0.0 3.0 0.00 0.00 0.00 43 1018.0
20260906044758 72 223 1.0 3.0 0.00 0.00 0.00 42 1018.0
20260906044237 72 228 0.0 2.0 0.00 0.00 0.00 42 1018.2
20260906043737 73 228 0.0 2.0 0.00 0.00 0.00 41 1018.0
20260906043258 73 228 1.0 6.0 0.00 0.00 0.00 41 1018.0
20260906042737 73 228 1.0 6.0 0.00 0.00 0.00 40 1018.0
20260906042237 74 229 0.0 3.0 0.00 0.00 0.00 40 1018.0
20260906041737 74 228 1.0 4.0 0.00 0.00 0.00 39 1018.0
20260906041258 75 235 1.0 4.0 0.00 0.00 0.00 38 1018.0
20260906040758 75 231 1.0 5.0 0.00 0.00 0.00 37 1017.9
20260906040237 76 241 1.0 6.0 0.00 0.00 0.00 36 1018.0
20260906035737 76 259 2.0 7.0 0.00 0.00 0.00 35 1018.0
20260906035237 77 243 3.0 7.0 0.00 0.00 0.00 34 1018.0
20260906034737 78 240 2.0 7.0 0.00 0.00 0.00 36 1018.0
20260906034237 79 224 2.0 9.0 0.00 0.00 0.00 42 1017.9
20260906033737 79 172 2.0 9.0 0.00 0.00 0.00 46 1017.8
20260906033237 79 161 2.0 9.0 0.00 0.00 0.00 45 1017.8
20260906032758 80 169 3.0 7.0 0.00 0.00 0.00 44 1017.8
20260906032237 80 187 2.0 13.0 0.00 0.00 0.00 41 1017.7
20260906031737 80 159 4.0 13.0 0.00 0.00 0.00 40 1017.7
20260906031237 80 145 3.0 12.0 0.00 0.00 0.00 41 1017.6
20260906030737 79 220 3.0 12.0 0.00 0.00 0.00 43 1017.5
20260906030237 79 196 3.0 10.0 0.00 0.00 0.00 45 1017.4
20260906025758 78 195 4.0 15.0 0.00 0.00 0.00 42 1017.4
20260906025237 77 275 5.0 15.0 0.00 0.00 0.00 43 1017.5
20260906024737 77 189 3.0 11.0 0.00 0.00 0.00 43 1017.2
20260906024237 77 174 3.0 9.0 0.00 0.00 0.00 45 1017.0
20260906023737 77 197 1.0 5.0 0.00 0.00 0.00 44 1016.8
20260906023237 77 175 1.0 5.0 0.00 0.00 0.00 44 1016.8
20260906022737 77 162 1.0 3.0 0.00 0.00 0.00 44 1016.7
20260906022237 77 129 1.0 3.0 0.00 0.00 0.00 44 1016.7
20260906021737 77 185 1.0 3.0 0.00 0.00 0.00 44 1016.7
20260906021237 78 163 0.0 4.0 0.00 0.00 0.00 44 1016.6
20260906020737 78 204 1.0 4.0 0.00 0.00 0.00 43 1016.5
20260906020237 78 169 1.0 5.0 0.00 0.00 0.00 42 1016.5
20260906015737 79 187 2.0 5.0 0.00 0.00 0.00 42 1016.5
20260906015237 79 163 1.0 4.0 0.00 0.00 0.00 41 1016.4
20260906014737 80 184 0.0 4.0 0.00 0.00 0.00 41 1016.4
20260906014237 81 110 0.0 4.0 0.00 0.00 0.00 40 1016.3
20260906013737 81 159 1.0 6.0 0.00 0.00 0.00 39 1016.3
20260906013237 82 197 0.0 6.0 0.00 0.00 0.00 38 1016.3
20260906012737 82 -1 1.0 7.0 0.00 0.00 0.00 37 1016.3
20260906012237 83 203 3.0 7.0 0.00 0.00 0.00 36 1016.2
20260906011737 85 131 0.0 4.0 0.00 0.00 0.00 33 1016.3
20260906011237 85 182 0.0 3.0 0.00 0.00 0.00 30 1016.2
20260906010737 86 179 0.0 3.0 0.00 0.00 0.00 30 1016.0
20260906010258 87 164 1.0 4.0 0.00 0.00 0.00 29 1016.1
20260906005737 87 183 1.0 4.0 0.00 0.00 0.00 28 1016.0
20260906005237 87 -1 1.0 4.0 0.00 0.00 0.00 27 1016.0
20260906004737 88 -1 1.0 4.0 0.00 0.00 0.00 27 1016.0
20260906004237 88 -1 1.0 5.0 0.00 0.00 0.00 27 1016.0
20260906003737 89 -1 2.0 5.0 0.00 0.00 0.00 26 1016.0
20260906003237 89 -1 1.0 4.0 0.00 0.00 0.00 25 1015.9
20260906002737 90 -1 0.0 3.0 0.00 0.00 0.00 24 1015.9
20260906002237 90 -1 0.0 3.0 0.00 0.00 0.00 23 1015.9
20260906001737 91 -1 1.0 3.0 0.00 0.00 0.00 22 1015.9
20260906001237 91 -1 0.0 3.0 0.00 0.00 0.00 22 1015.8
20260906000737 92 169 1.0 3.0 0.00 0.00 0.00 21 1015.9
20260906000258 92 207 2.0 4.0 0.00 0.00 0.00 22 1015.8
20260905235737 93 201 0.0 4.0 0.00 0.00 0.00 22 1015.7
20260905235237 93 227 1.0 4.0 0.00 0.00 0.00 21 1015.7
20260905234737 93 191 0.0 3.0 0.00 0.00 0.00 22 1015.8
20260905234237 93 143 1.0 4.0 0.00 0.00 0.00 21 1015.8
20260905233737 92 182 1.0 6.0 0.00 0.00 0.00 22 1015.8
20260905233237 92 159 2.0 6.0 0.00 0.00 0.00 22 1015.7
20260905232737 92 130 1.0 5.0 0.00 0.00 0.00 22 1015.7
20260905232258 91 313 0.0 3.0 0.00 0.00 0.00 22 1015.7
20260905231737 91 106 1.0 4.0 0.00 0.00 0.00 22 1015.7
20260905231237 91 92 1.0 4.0 0.00 0.00 0.00 22 1015.8
20260905230737 91 132 1.0 4.0 0.00 0.00 0.00 21 1015.7
20260905230237 92 154 1.0 4.0 0.00 0.00 0.00 21 1015.8
20260905225737 92 153 1.0 6.0 0.00 0.00 0.00 20 1015.7
20260905225237 93 155 1.0 6.0 0.00 0.00 0.00 21 1015.7
20260905224737 93 135 2.0 3.0 0.00 0.00 0.00 22 1015.7
20260905224237 92 105 0.0 5.0 0.00 0.00 0.00 22 1015.8
20260905223737 92 63 3.0 5.0 0.00 0.00 0.00 22 1015.8
20260905223237 92 99 2.0 7.0 0.00 0.00 0.00 23 1015.8
20260905222737 93 109 2.0 7.0 0.00 0.00 0.00 23 1015.8
20260905222237 93 195 2.0 5.0 0.00 0.00 0.00 23 1015.8
20260905221737 92 178 2.0 5.0 0.00 0.00 0.00 23 1015.8
20260905221237 92 66 1.0 8.0 0.00 0.00 0.00 24 1015.7
20260905220737 92 85 2.0 8.0 0.00 0.00 0.00 23 1015.8
20260905220258 92 120 2.0 7.0 0.00 0.00 0.00 24 1015.9
20260905215737 92 50 1.0 4.0 0.00 0.00 0.00 26 1016.0
20260905215237 91 79 2.0 8.0 0.00 0.00 0.00 23 1016.0
20260905214737 92 128 4.0 8.0 0.00 0.00 0.00 24 1016.1
20260905214237 92 63 3.0 8.0 0.00 0.00 0.00 25 1016.0
20260905213737 92 83 4.0 7.0 0.00 0.00 0.00 25 1016.1
20260905213237 91 75 2.0 10.0 0.00 0.00 0.00 26 1016.1
20260905212737 91 84 4.0 10.0 0.00 0.00 0.00 25 1016.1
20260905212237 91 83 3.0 9.0 0.00 0.00 0.00 25 1016.2